Location: ActonStarParty
(42.4766°N, 71.4538°W)
Time: 21:23:16
(UTC-04:00)

ISS - Visible Passes

Search period start: 29 May 2017 00:00
Search period end: 08 June 2017 00:00
Orbit: 402 x 408 km, 51.6° (Epoch: 30 May)

Date Brightness Start Highest point End Pass type
(mag) Time Alt. Az. Time Alt. Az. Time Alt. Az.
29 May -1.6 01:04:31 10° NW 01:06:24 25° NNW 01:06:24 25° NNW visible
29 May -1.7 20:57:48 10° W 21:00:46 30° NNW 21:03:44 10° NE visible
29 May -0.8 22:35:48 10° NW 22:38:01 17° N 22:40:14 10° NE visible
30 May -1.6 00:12:34 10° NW 00:15:20 24° NNE 00:15:36 24° NNE visible
30 May -0.9 21:43:20 10° NW 21:45:41 18° N 21:48:02 10° NE visible
30 May -1.2 23:20:34 10° NW 23:23:04 20° NNE 23:24:57 13° NE visible
31 May -1.2 00:56:46 10° NW 00:57:35 16° NW 00:57:35 16° NW visible
31 May -1.1 20:50:47 10° WNW 20:53:22 21° NNW 20:55:59 10° NE visible
31 May -1.0 22:28:27 10° NW 22:30:44 17° N 22:33:02 10° NE visible
01 Jun -2.0 00:04:46 10° NW 00:07:01 31° NNW 00:07:01 31° NNW visible
01 Jun -0.9 21:36:10 10° NW 21:38:23 16° N 21:40:36 10° NE visible
01 Jun -1.9 23:12:47 10° NW 23:15:40 27° NNE 23:16:30 24° NE visible
02 Jun -0.7 00:49:06 10° WNW 00:49:08 10° WNW 00:49:08 10° WNW visible
02 Jun -1.4 22:20:46 10° NW 22:23:23 21° NNE 22:25:58 10° ENE visible
02 Jun -1.9 23:56:58 10° NW 23:58:39 28° NW 23:58:39 28° NW visible
03 Jun -1.2 21:28:40 10° NW 21:31:01 18° N 21:33:23 10° NE visible
03 Jun -3.0 23:04:55 10° NW 23:08:07 46° NNE 23:08:13 46° NE visible
04 Jun -2.2 22:12:53 10° NW 22:15:52 30° NNE 22:17:47 17° ENE visible
04 Jun -1.5 23:49:18 10° WNW 23:50:26 19° WNW 23:50:26 19° WNW visible
05 Jun -1.7 21:20:51 10° NW 21:23:34 23° NNE 21:26:15 10° ENE visible
05 Jun -3.7 22:57:04 10° WNW 23:00:02 69° WNW 23:00:02 69° WNW visible
06 Jun -3.3 22:04:57 10° NW 22:08:12 55° NNE 22:09:40 28° E visible
06 Jun -1.0 23:42:02 10° W 23:42:18 11° W 23:42:18 11° W visible
07 Jun -2.5 21:12:52 10° NW 21:15:57 35° NNE 21:19:01 10° E visible
07 Jun -2.6 22:49:24 10° WNW 22:51:58 32° WSW 22:51:58 32° WSW visible
